Tracking 31027 objects as of 19-Jul-2025
HD Live streaming from Space Station
objects crossing your sky now

FLOCK 4Q 25

Track FLOCK 4Q 25 now!
10-day predictions
FLOCK 4Q 25 is classified as:


NORAD ID: 58303
Int'l Code: 2023-174AZ
Perigee: 453.9 km
Apogee: 461.6 km
Inclination: 97.4 °
Period: 93.6 minutes
Semi major axis: 6828 km
RCS: Unknown
Launch date: November 11, 2023
Source: United States (US)
Launch site: AIR FORCE WESTERN TEST RANGE (AFWTR)
Your satellite tracking list
IRIDIUM 33 DEB
Track 1 satellite(s)




NASA's NSSDC Master Catalog

Two Line Element Set (TLE):
1 58303U 23174AZ  25199.18732017  .00014329  00000-0  37914-3 0  9997
2 58303  97.4114 279.3768 0005678 254.6420 105.4198 15.38483001 94237
Source of the keplerian elements: AFSPC